Погода в Цзиньчуне

Китай     21°51′11″N   100°55′52″E
темп.,
°C
ветер,
м/с
пор.,
м/с
влажн.,
%
обл.,
%
осадки,
мм/ч
давл.,
гПа
погр.,
м
21 января, пт
пт2123:00+12юв11987 0.2 101315
02:00+11ссв119895 0.2 101416
05:00+12юз009934 0.4 101327
08:00+10ссв0010050 0.6 101416
11:00+15ююв018875 0.0 1015442
14:00+21ююз135928 0.3 10111231
17:00+21ююв34561 0.3 10081292
20:00+14ююв119711 1.9 101024
22 января, сб
сб2223:00+12ю119921 1.4 101213
02:00+11юв019931 1.6 101213
05:00+11юв0010067 0.3 101116
08:00+12юв009998 0.5 101228
11:00+14юв0193100 0.2 1014304
14:00+15юв128190 0.3 1011507
17:00+18вюв12724 0.3 1007343
20:00+13юв11935 0.4 101015
23 января, вс
вс2323:00+11юв00965 0.0 101210
02:00+10зсз009914 0.0 101211
05:00+9ююв009929 0.0 101213
08:00+8ююв009932 0.0 101413
11:00+16зсз117314 0.0 1014496
14:00+23зюз14393 0.0 10101958
17:00+23ю24365 0.0 10071917
20:00+14ююв11720 0.0 101014
24 января, пн
пн2423:00+11юз00820 0.0 101310
02:00+9ююз00895 0.0 101310
05:00+8сз009457 0.0 101310
08:00+7ссз00961 0.0 101511
11:00+17сз10530 0.0 1015422
14:00+24юз13350 0.0 10101423
17:00+24ююв243611 0.0 10071811
20:00+15ююв116914 0.0 101015
25 января, вт
вт2523:00+12ююв00785 0.0 101310
02:00+10вюв00870 0.0 101310
05:00+9ююв00930 0.0 101310
08:00+8в00972 0.0 101411
11:00+18зсз01550 0.0 1014471
14:00+25юз14341 0.0 10101638
17:00+23ююв254498 0.0 1007374
20:00+15ююв116836 0.0 100916